Location: *
(39.6167°S, 171.5333°W)
Time: 19:01:33
(UTC+00:00)

NOSS 3-1 (A) - Pass Details

Date: 13 May 2021
Orbit: 733 x 1479 km, 63.4° (Epoch: 01 May)

Event Time Altitude Azimuth Distance (km) Brightness Sun altitude
Exits shadow 17:11:27 - 212° (SSW) 3,038 5.7 -13.8°
Reaches altitude 10° 17:12:16 10° 212° (SSW) 2,728 5.4 -13.6°
Maximum altitude 17:18:31 78° 125° (SE) 877 3.4 -12.5°
Drops below altitude 10° 17:23:49 10° 38° (NE) 2,326 6.3 -11.5°
Sets 17:26:04 0° 36° (NE) 3,201 7.1 -11.1°
